Content
SEND FEEDBACK

Daily
Averages
Monthly
Summary
United States of America

ST. LOUIS, MISSOURI


Home > North America > United States > Missouri
Elevation: 163 meters     Latitude: 38 45N     Longitude: 090 22W

WEATHER
 
SELECT A DAY
Number of Records: 196,364;   Date Range: 1/1/95 - 7/26/14
 
SHARE

PRINT THIS DATA

[ ← Previous Day ]
WEATHER ALMANAC - APRIL 2, 2013
[ Next Day → ]
[ °C ]   °F
Weather ElementAverageHighLow
Temperature36.7 °F48.9 °F (5:54 pm)25 °F (5:54 am)
Dewpoint19.2 °F27 °F (10:54 pm)10.9 °F (2:54 pm)
Humidity54.3 %85 % (6:54 am)24 % (2:54 pm)
Barometer30.33 in30.38 in (7:54 am)30.29 in (1:54 am)
Wind Speed1.4 mph5.8 mph (8:54 am)
Weather ElementAverage
Visibility10 mi
Wind DirectionNNE (20 °)

Weather ElementTotal
Precipitation---
Heating Degree Days28.1 (Base 65)
Averaged from 23 records on April 2, 2013
WEATHER CONDITIONS BREAKOUT
WIND DIRECTION BREAKOUT
WEATHER BY HOUR - APRIL 2, 2013
[ °C ]   °F
Local TimeTemperatureDewpointHumidityBarometerVisibilityWind DirectionWind SpeedGust SpeedPrecipitationEventsConditions
1:54 AM28.9 °F21.9 °F75 %30.29 in10.0 miCalmClear
2:54 AM28.0 °F21.0 °F75 %30.30 in10.0 miCalmClear
3:54 AM28.0 °F21.0 °F75 %30.30 in10.0 miCalmClear
4:54 AM27.0 °F19.9 °F75 %30.31 in10.0 miCalmClear
5:54 AM25.0 °F19.9 °F81 %30.33 in10.0 miCalmClear
6:54 AM25.0 °F21.0 °F85 %30.35 in10.0 miCalmClear
7:54 AM30.0 °F24.1 °F79 %30.38 in10.0 miCalmPartly Cloudy
8:54 AM35.1 °F21.0 °F57 %30.37 in10.0 miENE (60°)5.8 mphScattered Clouds
9:54 AM37.0 °F18.0 °F46 %30.38 in10.0 miCalmClear
10:54 AM37.9 °F17.1 °F43 %30.38 in10.0 miVariable3.5 mphScattered Clouds
11:54 AM41.0 °F14.0 °F33 %30.36 in10.0 miVariable3.5 mphScattered Clouds
12:54 PM43.0 °F12.9 °F30 %30.35 in10.0 miCalmScattered Clouds
1:54 PM44.1 °F12.0 °F27 %30.33 in10.0 miCalmScattered Clouds
2:54 PM46.0 °F10.9 °F24 %30.32 in10.0 miNNE (30°)5.8 mphClear
3:54 PM46.9 °F12.9 °F25 %30.30 in10.0 miVariable3.5 mphScattered Clouds
4:54 PM48.0 °F14.0 °F26 %30.29 in10.0 miNorth (350°)4.6 mphClear
5:54 PM48.9 °F15.1 °F26 %30.29 in10.0 miCalmScattered Clouds
6:54 PM46.0 °F17.1 °F31 %30.30 in10.0 miNNE (20°)4.6 mphScattered Clouds
7:54 PM39.0 °F24.1 °F55 %30.30 in10.0 miCalmScattered Clouds
8:54 PM37.0 °F26.1 °F65 %30.31 in10.0 miCalmClear
9:54 PM35.1 °F25.0 °F67 %30.32 in10.0 miCalmClear
10:54 PM33.1 °F27.0 °F78 %30.32 in10.0 miCalmClear
11:54 PM33.1 °F25.0 °F72 %30.33 in10.0 miCalmClear
Hourly data recorded from KSUS, located miles away from St. Louis, Missouri







STORIES FROM OUR PARTNERS